Location: Champseau
(45.8333°N, 1.7667°E)
Time: 09:44:39
(UTC+00:00)

ITUPSAT 1 - Pass Details

Date: 06 December 2021
Orbit: 700 x 713 km, 98.6° (Epoch: 27 January)

Event Time Altitude Azimuth Distance (km) Brightness Sun altitude
Rises 05:32:20 0° 128° (SE) 3,093 ? -17.9°
Reaches altitude 10° 05:34:58 10° 114° (ESE) 2,181 ? -17.5°
Maximum altitude 05:38:41 23° 62° (ENE) 1,491 ? -16.8°
Drops below altitude 10° 05:42:25 10° 11° (NNE) 2,199 ? -16.2°
Sets 05:45:04 0° 358° (N) 3,125 ? -15.8°
